Location: Bothwell
(42.3833°S, 147.0000°E)
Time: 22:09:15
(UTC+11:00)

RS-44 - Pass Details

Date: 30 September 2022
Orbit: 1175 x 1510 km, 82.5° (Epoch: 29 November)

Event Time Altitude Azimuth Distance (km) Brightness Sun altitude
Exits shadow 23:14:50 53° 209° (SSW) 1,796 ? -43.5°
Drops below altitude 10° 23:21:51 10° 177° (S) 3,701 ? -43.8°
Sets 23:24:52 0° 173° (S) 4,686 ? -43.9°
